Location: Peterborough
(44.3091°N, 78.3197°W)
Time: 01:01:18
(UTC-04:00)

Vanguard 2 Rocket - Pass Details

Date: 29 March 2023
Orbit: 554 x 3314 km, 32.9° (Epoch: 02 June)

Event Time Altitude Azimuth Distance (km) Brightness Sun altitude
Rises 18:39:03 0° 211° (SSW) 2,966 10.1 9.5°
Reaches altitude 10° 18:41:48 10° 190° (S) 2,276 9.2 9.0°
Maximum altitude 18:45:15 18° 148° (SSE) 2,124 8.6 8.3°
Drops below altitude 10° 18:49:46 10° 110° (ESE) 3,120 9.1 7.5°
Sets 18:54:31 0° 93° (E) 4,650 9.8 6.7°
